Weather History for KLWC - May, 2013

Change the Weather History Date:

Friday, May 24, 2013

  Actual Average Record
Temperature  
Mean Temperature 61 °F 67 °F  
Max Temperature 76 °F 79 °F 91 °F (2000)
Min Temperature 45 °F 56 °F 45 °F (2001)
Degree Days  
Heating Degree Days 4 2  
Month to date heating degree days 156 96  
Since 1 July heating degree days 5270 5075  
Cooling Degree Days 0 4  
Month to date cooling degree days 59 60  
Year to date cooling degree days 72 83  
Growing Degree Days 10 (Base 50)    
Moisture  
Dew Point 48 °F    
Average Humidity 67    
Maximum Humidity 93    
Minimum Humidity 41    
Precipitation  
Precipitation 0.00 in 0.20 in 1.79 in (2004)
Month to date precipitation 2.73 3.93  
Year to date precipitation 10.85 12.63  
Sea Level Pressure  
Sea Level Pressure 30.24 in    
Wind  
Wind Speed 12 mph (ESE)    
Max Wind Speed 24 mph    
Max Gust Speed 30 mph    
Visibility 7 miles    
Events Fog    
T = Trace of Precipitation, MM = Missing Value Source: NWS Daily Summary

Daily Weather History Graph

Daily Weather History Graph

Search for Another Location

Airport or City:

Trip Planner

Search our weather history database for the weather conditions in past years. The results will help you decide how hot, cold, wet, or windy it might be!

Date:

Astronomy

May. 24, 2013 Rise Set
Actual Time 6:01 AM CDT 8:34 PM CDT
Civil Twilight 5:30 AM CDT 9:05 PM CDT
Nautical Twilight 4:51 AM CDT 9:44 PM CDT
Astronomical Twilight 4:08 AM CDT 10:27 PM CDT
Moon 8:18 PM CDT (5/24) 5:33 AM CDT (5/24)
Length of Visible Light 15h 35m
Length of Day
14h 33m
Full, 100% of the Moon is Illuminated
May 24
Full
May 24
Full
May 31
Last Quarter
Jun 8
New
Jun 16
First Quarter

Hourly Weather History & Observations

Time (CDT) Temp. Windchill Dew Point Humidity Pressure Visibility Wind Dir Wind Speed Gust Speed Precip Events Conditions
12:52 AM 55.9 °F - 51.1 °F 84% 30.22 in 10.0 mi East 5.8 mph - N/A   Clear
1:52 AM 53.1 °F - 48.9 °F 86% 30.25 in 10.0 mi Calm Calm - N/A   Clear
2:52 AM 48.0 °F - 46.0 °F 93% 30.25 in 10.0 mi ENE 3.5 mph - N/A   Clear
3:52 AM 48.9 °F - 46.0 °F 90% 30.26 in 10.0 mi Calm Calm - N/A   Clear
4:52 AM 48.0 °F - 46.0 °F 93% 30.27 in 4.0 mi SE 3.5 mph - N/A   Clear
5:28 AM 46.4 °F 45.2 °F 44.6 °F 93% 30.29 in 2.0 mi SE 3.5 mph - N/A   Partly Cloudy
5:30 AM 46.4 °F - 44.6 °F 93% 30.29 in 1.0 mi Calm Calm - N/A   Mist
5:32 AM 46.4 °F - 44.6 °F 93% 30.29 in 0.5 mi Calm Calm - N/A Fog Fog
5:42 AM 46.4 °F - 44.6 °F 93% 30.30 in 0.2 mi Calm Calm - N/A Fog Fog
5:52 AM 46.0 °F - 44.1 °F 93% 30.30 in 0.2 mi Calm Calm - N/A Fog Fog
6:05 AM 46.4 °F 45.2 °F 42.8 °F 87% 30.29 in 0.8 mi East 3.5 mph - N/A   Mist
6:08 AM 46.4 °F 45.2 °F 44.6 °F 93% 30.29 in 1.2 mi East 3.5 mph - N/A   Scattered Clouds
6:15 AM 46.4 °F 45.2 °F 44.6 °F 93% 30.29 in 3.0 mi ESE 3.5 mph - N/A   Partly Cloudy
6:52 AM 51.1 °F - 48.9 °F 92% 30.30 in 7.0 mi ESE 5.8 mph - N/A   Clear
7:52 AM 57.9 °F - 53.1 °F 84% 30.30 in 10.0 mi ESE 10.4 mph - N/A   Clear
8:52 AM 63.0 °F - 51.1 °F 65% 30.30 in 10.0 mi SE 19.6 mph 24.2 mph N/A   Clear
9:52 AM 66.9 °F - 48.0 °F 51% 30.30 in 10.0 mi SE 17.3 mph 25.3 mph N/A   Clear
10:52 AM 69.1 °F - 46.9 °F 45% 30.29 in 10.0 mi ESE 24.2 mph 29.9 mph N/A   Clear
11:52 AM 71.1 °F - 48.0 °F 44% 30.27 in 10.0 mi ESE 20.7 mph 27.6 mph N/A   Partly Cloudy
12:52 PM 71.1 °F - 46.9 °F 42% 30.26 in 10.0 mi ESE 20.7 mph 26.5 mph N/A   Clear
1:52 PM 73.9 °F - 48.0 °F 40% 30.25 in 10.0 mi ESE 16.1 mph 23.0 mph N/A   Clear
2:52 PM 75.0 °F - 50.0 °F 41% 30.24 in 10.0 mi SSE 18.4 mph 23.0 mph N/A   Clear
3:52 PM 75.9 °F - 50.0 °F 40% 30.21 in 10.0 mi SSE 17.3 mph 24.2 mph N/A   Mostly Cloudy
4:52 PM 73.9 °F - 51.1 °F 45% 30.19 in 10.0 mi SSE 16.1 mph 23.0 mph N/A   Mostly Cloudy
5:52 PM 73.9 °F - 50.0 °F 43% 30.17 in 10.0 mi SE 17.3 mph 21.9 mph N/A   Overcast
6:52 PM 73.0 °F - 50.0 °F 44% 30.14 in 10.0 mi SE 15.0 mph 23.0 mph N/A   Clear
7:52 PM 71.1 °F - 50.0 °F 47% 30.13 in 10.0 mi SE 16.1 mph - N/A   Clear
8:52 PM 68.0 °F - 51.1 °F 55% 30.11 in 10.0 mi ESE 12.7 mph - N/A   Clear
9:52 PM 64.9 °F - 51.1 °F 61% 30.14 in 10.0 mi ESE 8.1 mph - N/A   Clear
10:52 PM 64.9 °F - 50.0 °F 58% 30.13 in 10.0 mi SE 9.2 mph - N/A   Clear
11:52 PM 63.0 °F - 48.9 °F 60% 30.14 in 10.0 mi ESE 8.1 mph - N/A   Mostly Cloudy